| time (UTC) | temp F | wind direction | speed MPH | gust MPH | rain 1hr in | rain 24hr in | rain mn in | humidity % | barometer mb |
| 20260508163010 | 68 | 315 | 16.0 | 22.0 | 0.00 | 0.00 | 0.00 | 30 | 999.4 |
| 20260508161510 | 68 | 329 | 12.0 | 22.0 | 0.00 | 0.00 | 0.00 | 30 | 999.6 |
| 20260508160001 | 66 | 289 | 12.0 | 19.0 | 0.00 | 0.00 | 0.00 | 31 | 999.4 |
| 20260508154622 | 65 | 289 | 12.0 | 18.0 | 0.00 | 0.00 | 0.00 | 32 | 999.5 |
| 20260508153054 | 63 | 283 | 9.0 | 15.0 | 0.00 | 0.00 | 0.00 | 41 | 999.6 |
| 20260508151550 | 59 | 293 | 3.0 | 8.0 | 0.00 | 0.00 | 0.00 | 48 | 999.7 |
| 20260508150045 | 57 | 258 | 3.0 | 8.0 | 0.00 | 0.00 | 0.00 | 49 | 999.9 |
| 20260508144555 | 56 | 254 | 3.0 | 10.0 | 0.00 | 0.00 | 0.00 | 48 | 999.9 |
| 20260508143040 | 56 | 283 | 8.0 | 11.0 | 0.00 | 0.00 | 0.00 | 46 | 1000.1 |
| 20260508141535 | 55 | 278 | 5.0 | 9.0 | 0.00 | 0.00 | 0.00 | 47 | 1000.0 |
| 20260508140032 | 53 | 254 | 2.0 | 7.0 | 0.00 | 0.00 | 0.00 | 52 | 1000.2 |
| 20260508134529 | 52 | 258 | 1.0 | 4.0 | 0.00 | 0.00 | 0.00 | 52 | 1000.2 |
| 20260508133042 | 51 | 204 | 0.0 | 2.0 | 0.00 | 0.00 | 0.00 | 57 | 1000.2 |
| 20260508131520 | 50 | 225 | 0.0 | 1.0 | 0.00 | 0.00 | 0.00 | 57 | 1000.2 |
| 20260508130017 | 48 | 226 | 0.0 | 3.0 | 0.00 | 0.00 | 0.00 | 61 | 1000.4 |
| 20260508124515 | 46 | 266 | 0.0 | 3.0 | 0.00 | 0.00 | 0.00 | 64 | 1000.5 |
| 20260508123015 | 44 | 209 | 0.0 | 2.0 | 0.00 | 0.00 | 0.00 | 65 | 1000.5 |
| 20260508121508 | 41 | 189 | 1.0 | 4.0 | 0.00 | 0.00 | 0.00 | 70 | 1000.2 |
| 20260508120006 | 39 | 190 | 0.0 | 2.0 | 0.00 | 0.00 | 0.00 | 71 | 1000.4 |
| 20260508114504 | 37 | 190 | 0.0 | 1.0 | 0.00 | 0.00 | 0.00 | 73 | 1000.6 |
| 20260508113002 | 37 | 190 | 0.0 | 1.0 | 0.00 | 0.00 | 0.00 | 74 | 1000.5 |
| 20260508111601 | 38 | 189 | 0.0 | 1.0 | 0.00 | 0.00 | 0.00 | 73 | 1000.6 |
| 20260508110114 | 40 | 190 | 0.0 | 1.0 | 0.00 | 0.00 | 0.00 | 70 | 1000.6 |
| 20260508104600 | 40 | 270 | 0.0 | 2.0 | 0.00 | 0.00 | 0.00 | 69 | 1000.5 |
| 20260508103100 | 42 | 270 | 0.0 | 2.0 | 0.00 | 0.00 | 0.00 | 64 | 1000.8 |
| 20260508101558 | 41 | 355 | 0.0 | 3.0 | 0.00 | 0.00 | 0.00 | 68 | 1000.9 |
| 20260508100108 | 41 | 334 | 0.0 | 2.0 | 0.00 | 0.00 | 0.00 | 69 | 1001.2 |
| 20260508094603 | 41 | 334 | 0.0 | 1.0 | 0.00 | 0.00 | 0.00 | 69 | 1001.1 |
| 20260508093053 | 41 | 334 | 0.0 | 1.0 | 0.00 | 0.00 | 0.00 | 69 | 1001.0 |
| 20260508091602 | 41 | 334 | 0.0 | 1.0 | 0.00 | 0.00 | 0.00 | 67 | 1001.0 |
| 20260508090112 | 41 | 334 | 0.0 | 1.0 | 0.00 | 0.00 | 0.00 | 67 | 1001.1 |
| 20260508084548 | 41 | 335 | 0.0 | 2.0 | 0.00 | 0.00 | 0.00 | 66 | 1001.2 |
| 20260508083047 | 41 | 333 | 0.0 | 5.0 | 0.00 | 0.00 | 0.00 | 64 | 1001.2 |
| 20260508081601 | 42 | 354 | 1.0 | 4.0 | 0.00 | 0.00 | 0.00 | 64 | 1001.4 |
| 20260508080045 | 39 | 255 | 0.0 | 0.0 | 0.00 | 0.00 | 0.00 | 67 | 1001.2 |
| 20260508074547 | 39 | 255 | 0.0 | 1.0 | 0.00 | 0.00 | 0.00 | 68 | 1001.4 |
| 20260508073102 | 38 | 255 | 0.0 | 2.0 | 0.00 | 0.00 | 0.00 | 68 | 1001.7 |
| 20260508071540 | 37 | 256 | 0.0 | 4.0 | 0.00 | 0.00 | 0.00 | 70 | 1001.8 |
| 20260508070042 | 35 | 255 | 0.0 | 1.0 | 0.00 | 0.00 | 0.00 | 71 | 1001.8 |
| 20260508064537 | 35 | 255 | 0.0 | 2.0 | 0.00 | 0.00 | 0.00 | 66 | 1001.7 |
| 20260508063035 | 37 | 255 | 0.0 | 2.0 | 0.00 | 0.00 | 0.00 | 62 | 1001.8 |
| 20260508061534 | 39 | 244 | 0.0 | 1.0 | 0.00 | 0.00 | 0.00 | 60 | 1001.8 |
| 20260508060025 | 39 | 238 | 0.0 | 2.0 | 0.00 | 0.00 | 0.00 | 59 | 1001.7 |
| 20260508054524 | 40 | 292 | 0.0 | 1.0 | 0.00 | 0.00 | 0.00 | 56 | 1001.8 |
| 20260508053022 | 42 | 292 | 0.0 | 1.0 | 0.00 | 0.00 | 0.00 | 51 | 1001.9 |
| 20260508051517 | 42 | 292 | 0.0 | 1.0 | 0.00 | 0.00 | 0.00 | 50 | 1002.0 |
| 20260508050013 | 43 | 292 | 0.0 | 1.0 | 0.00 | 0.00 | 0.00 | 49 | 1002.1 |
| 20260508043017 | 45 | 292 | 0.0 | 1.0 | 0.00 | 0.00 | 0.00 | 45 | 1002.3 |
| 20260508041517 | 46 | 293 | 0.0 | 1.0 | 0.00 | 0.00 | 0.00 | 44 | 1002.3 |
| 20260508040012 | 46 | 294 | 0.0 | 3.0 | 0.00 | 0.00 | 0.00 | 44 | 1002.4 |
| 20260508034515 | 46 | 293 | 1.0 | 3.0 | 0.00 | 0.00 | 0.00 | 44 | 1002.4 |
| 20260508033010 | 46 | 320 | 0.0 | 1.0 | 0.00 | 0.00 | 0.00 | 43 | 1002.4 |
| 20260508031512 | 46 | 18 | 0.0 | 3.0 | 0.00 | 0.00 | 0.00 | 41 | 1002.3 |
| 20260508030010 | 50 | 237 | 0.0 | 2.0 | 0.00 | 0.00 | 0.00 | 38 | 1002.2 |
| 20260508024525 | 49 | 251 | 0.0 | 2.0 | 0.00 | 0.00 | 0.00 | 38 | 1002.2 |
| 20260508023008 | 49 | 251 | 0.0 | 1.0 | 0.00 | 0.00 | 0.00 | 38 | 1002.1 |
| 20260508021508 | 49 | 258 | 0.0 | 1.0 | 0.00 | 0.00 | 0.00 | 38 | 1001.9 |
| 20260508020007 | 50 | 272 | 0.0 | 2.0 | 0.00 | 0.00 | 0.00 | 37 | 1001.9 |
| 20260508014506 | 53 | 272 | 0.0 | 0.0 | 0.00 | 0.00 | 0.00 | 35 | 1001.9 |
| 20260508013005 | 56 | 272 | 0.0 | 1.0 | 0.00 | 0.00 | 0.00 | 33 | 1001.9 |
| 20260508011505 | 58 | 274 | 1.0 | 6.0 | 0.00 | 0.00 | 0.00 | 31 | 1002.0 |
| 20260508010008 | 59 | 284 | 5.0 | 8.0 | 0.00 | 0.00 | 0.00 | 29 | 1001.9 |
| 20260508004504 | 61 | 287 | 5.0 | 7.0 | 0.00 | 0.00 | 0.00 | 27 | 1001.9 |
| 20260508003004 | 62 | 289 | 7.0 | 13.0 | 0.00 | 0.00 | 0.00 | 23 | 1001.8 |
| 20260508001509 | 63 | 280 | 9.0 | 13.0 | 0.00 | 0.00 | 0.00 | 23 | 1001.9 |
| 20260508000002 | 63 | 289 | 6.0 | 15.0 | 0.00 | 0.00 | 0.00 | 23 | 1001.9 |
| 20260507234502 | 63 | 299 | 11.0 | 20.0 | 0.00 | 0.00 | 0.00 | 23 | 1002.0 |
| 20260507233102 | 63 | 277 | 7.0 | 14.0 | 0.00 | 0.00 | 0.00 | 22 | 1002.1 |
| 20260507231601 | 63 | 283 | 9.0 | 16.0 | 0.00 | 0.00 | 0.00 | 22 | 1002.0 |
| 20260507230112 | 63 | 247 | 3.0 | 13.0 | 0.00 | 0.00 | 0.00 | 22 | 1002.1 |
| 20260507224559 | 63 | 292 | 3.0 | 12.0 | 0.00 | 0.00 | 0.00 | 22 | 1002.2 |
| 20260507223056 | 63 | 293 | 10.0 | 16.0 | 0.00 | 0.00 | 0.00 | 22 | 1002.3 |
| 20260507221555 | 63 | 286 | 9.0 | 16.0 | 0.00 | 0.00 | 0.00 | 23 | 1002.3 |
| 20260507220057 | 63 | 296 | 7.0 | 19.0 | 0.00 | 0.00 | 0.00 | 22 | 1002.5 |
| 20260507214552 | 63 | 299 | 10.0 | 13.0 | 0.00 | 0.00 | 0.00 | 21 | 1002.6 |
| 20260507213152 | 63 | 283 | 4.0 | 13.0 | 0.00 | 0.00 | 0.00 | 23 | 1002.7 |
| 20260507211548 | 62 | 273 | 5.0 | 21.0 | 0.00 | 0.00 | 0.00 | 24 | 1002.8 |
| 20260507210101 | 62 | 257 | 5.0 | 11.0 | 0.00 | 0.00 | 0.00 | 23 | 1002.9 |
| 20260507204543 | 61 | 235 | 4.0 | 22.0 | 0.00 | 0.00 | 0.00 | 25 | 1003.2 |
| 20260507203109 | 61 | 242 | 3.0 | 17.0 | 0.00 | 0.00 | 0.00 | 25 | 1003.3 |
| 20260507201540 | 62 | 278 | 6.0 | 14.0 | 0.00 | 0.00 | 0.00 | 25 | 1003.5 |
| 20260507200038 | 60 | 280 | 7.0 | 18.0 | 0.00 | 0.00 | 0.00 | 24 | 1003.8 |
| 20260507194537 | 60 | 247 | 5.0 | 12.0 | 0.00 | 0.00 | 0.00 | 25 | 1003.7 |
| 20260507193035 | 59 | 216 | 1.0 | 13.0 | 0.00 | 0.00 | 0.00 | 30 | 1003.8 |
| 20260507191536 | 59 | 272 | 4.0 | 12.0 | 0.00 | 0.00 | 0.00 | 31 | 1004.0 |
| 20260507190031 | 59 | 275 | 10.0 | 21.0 | 0.00 | 0.00 | 0.00 | 30 | 1004.1 |
| 20260507184527 | 58 | 280 | 7.0 | 14.0 | 0.00 | 0.00 | 0.00 | 32 | 1004.2 |
| 20260507183027 | 59 | 263 | 10.0 | 17.0 | 0.00 | 0.00 | 0.00 | 31 | 1004.2 |
| 20260507181525 | 59 | 239 | 5.0 | 15.0 | 0.00 | 0.00 | 0.00 | 30 | 1004.4 |
| 20260507180025 | 57 | 40 | 3.0 | 11.0 | 0.00 | 0.00 | 0.00 | 33 | 1004.6 |
| 20260507174528 | 57 | 291 | 5.0 | 13.0 | 0.00 | 0.00 | 0.00 | 34 | 1004.9 |
| 20260507173044 | 56 | 288 | 6.0 | 10.0 | 0.00 | 0.00 | 0.00 | 33 | 1005.0 |
| 20260507171522 | 57 | 104 | 0.0 | 7.0 | 0.00 | 0.00 | 0.00 | 34 | 1005.2 |
| 20260507170114 | 56 | 288 | 3.0 | 16.0 | 0.00 | 0.00 | 0.00 | 35 | 1005.5 |
| 20260507164511 | 56 | 169 | 3.0 | 8.0 | 0.00 | 0.00 | 0.00 | 35 | 1005.7 |